COSMOS 2184

导读

COSMOS 2184是独联体(CIS)继承苏联航天体系后,于1992年4月15日发射入轨的军用卫星,归属于苏联/俄罗斯经典的“宇宙”(Cosmos)卫星系列。作为冷战后独联体早期航天活动代表,它延续了该系列卫星多用途任务属性,大概率承担空间环境监测、技术验证或战略侦察相关任务,是后苏联时代航天力量延续的典型产物,至今仍在轨道完成预设使命。

基本信息
目录编号:
21937
目录名称:
COSMOS 2184
国际标识:
1992-020A
轨道中心:
EARTH
卫星名称:
COSMOS 2184
卫星全名:
--
卫星状态:
在轨 (已飞行12521 天)
发射日期:
1992-04-15 UTC
国别 :
俄罗斯(独联体) (CIS)
星等 :
--
轨道信息
数据来源 国际轨道数据 AOE轨道数据
星历时间 2026-07-27T12:10:49+0800
17小时前
查看轨道信息
2026-07-27T00:00:00+0800
1天前
查看轨道信息
半长轴 7365.557km 7365.556km
偏心率 0.0034285 0.003435
轨道倾角 82.931° 82.932°
近地点辐角 43.481° 44.755°
升交点赤经 85.627° 86.002°
平近点角 69.391° 80.310°
近地点 962.167km 962.118km
远地点 1012.673km 1012.72km
周期 104.850分钟 104.850分钟
每日圈数 13.733916 13.733919
详细信息
使用方式:
暂无
2D轨道图
3D轨道图
轨道高度分析图
轨道倾角分析图
轨道综合分析图
查看轨道综合分析图